Year,Month,Day,Hour,Minute,Value (Times are PST for temperature in C)
2006,09,28,00,00,14.80
2006,09,28,00,01,14.70
2006,09,28,00,02,14.70
2006,09,28,00,03,14.70
2006,09,28,00,04,14.70
2006,09,28,00,05,14.70
2006,09,28,00,06,14.70
2006,09,28,00,07,14.60
2006,09,28,00,08,14.60
2006,09,28,00,09,14.60
2006,09,28,00,10,14.60
2006,09,28,00,11,14.50
2006,09,28,00,12,14.50
2006,09,28,00,13,14.50
2006,09,28,00,14,14.50
2006,09,28,00,15,14.50
2006,09,28,00,16,14.50
2006,09,28,00,17,14.50
2006,09,28,00,18,14.50
2006,09,28,00,19,14.40
2006,09,28,00,20,14.40
2006,09,28,00,21,14.40
2006,09,28,00,22,14.40
2006,09,28,00,23,14.50
2006,09,28,00,24,14.50
2006,09,28,00,25,14.50
2006,09,28,00,26,14.50
2006,09,28,00,27,14.50
2006,09,28,00,28,14.50
2006,09,28,00,29,14.50
2006,09,28,00,30,14.50
2006,09,28,00,31,14.50
2006,09,28,00,32,14.50
2006,09,28,00,33,14.50
2006,09,28,00,34,14.50
2006,09,28,00,35,14.50
2006,09,28,00,36,14.50
2006,09,28,00,37,14.50
2006,09,28,00,38,14.50
2006,09,28,00,39,14.50
2006,09,28,00,40,14.50
2006,09,28,00,41,14.40
2006,09,28,00,42,14.40
2006,09,28,00,43,14.40
2006,09,28,00,44,14.40
2006,09,28,00,45,14.40
2006,09,28,00,46,14.40
2006,09,28,00,47,14.30
2006,09,28,00,48,14.30
2006,09,28,00,49,14.30
2006,09,28,00,50,14.30
2006,09,28,00,51,14.30
2006,09,28,00,52,14.30
2006,09,28,00,53,14.30
2006,09,28,00,54,14.30
2006,09,28,00,55,14.30
2006,09,28,00,56,14.40
2006,09,28,00,57,14.40
2006,09,28,00,58,14.40
2006,09,28,00,59,14.40
2006,09,28,01,00,14.40
2006,09,28,01,01,14.40
2006,09,28,01,02,14.50
2006,09,28,01,03,14.50
2006,09,28,01,04,14.50
2006,09,28,01,05,14.50
2006,09,28,01,06,14.50
2006,09,28,01,07,14.50
2006,09,28,01,08,14.60
2006,09,28,01,09,14.60
2006,09,28,01,10,14.60
2006,09,28,01,11,14.60
2006,09,28,01,12,14.60
2006,09,28,01,13,14.70
2006,09,28,01,14,14.70
2006,09,28,01,15,14.70
2006,09,28,01,16,14.70
2006,09,28,01,17,14.70
2006,09,28,01,18,14.70
2006,09,28,01,19,14.70
2006,09,28,01,20,14.70
2006,09,28,01,21,14.70
2006,09,28,01,22,14.70
2006,09,28,01,23,14.60
2006,09,28,01,24,14.60
2006,09,28,01,25,14.60
2006,09,28,01,26,14.60
2006,09,28,01,27,14.60
2006,09,28,01,28,14.60
2006,09,28,01,29,14.60
2006,09,28,01,30,14.50
2006,09,28,01,31,14.50
2006,09,28,01,32,14.50
2006,09,28,01,33,14.50
2006,09,28,01,34,14.40
2006,09,28,01,35,14.40
2006,09,28,01,36,14.40
2006,09,28,01,37,14.40
2006,09,28,01,38,14.40
2006,09,28,01,39,14.40
2006,09,28,01,40,14.30
2006,09,28,01,41,14.30
2006,09,28,01,42,14.30
2006,09,28,01,43,14.30
2006,09,28,01,44,14.30
2006,09,28,01,45,14.30
2006,09,28,01,46,14.30
2006,09,28,01,47,14.30
2006,09,28,01,48,14.30
2006,09,28,01,49,14.30
2006,09,28,01,50,14.30
2006,09,28,01,51,14.30
2006,09,28,01,52,14.20
2006,09,28,01,53,14.20
2006,09,28,01,54,14.20
2006,09,28,01,55,14.20
2006,09,28,01,56,14.20
2006,09,28,01,57,14.20
2006,09,28,01,58,14.20
2006,09,28,01,59,14.20
2006,09,28,02,00,14.20
2006,09,28,02,01,14.20
2006,09,28,02,02,14.20
2006,09,28,02,03,14.20
2006,09,28,02,04,14.20
2006,09,28,02,05,14.20
2006,09,28,02,06,14.20
2006,09,28,02,07,14.20
2006,09,28,02,08,14.10
2006,09,28,02,09,14.10
2006,09,28,02,10,14.10
2006,09,28,02,11,14.10
2006,09,28,02,12,14.10
2006,09,28,02,13,14.10
2006,09,28,02,14,14.10
2006,09,28,02,15,14.10
2006,09,28,02,16,14.00
2006,09,28,02,17,14.00
2006,09,28,02,18,14.00
2006,09,28,02,19,14.00
2006,09,28,02,20,14.00
2006,09,28,02,21,14.00
2006,09,28,02,22,14.00
2006,09,28,02,23,14.00
2006,09,28,02,24,14.00
2006,09,28,02,25,14.00
2006,09,28,02,26,14.00
2006,09,28,02,27,14.00
2006,09,28,02,28,14.00
2006,09,28,02,29,14.00
2006,09,28,02,30,14.00
2006,09,28,02,31,14.00
2006,09,28,02,32,14.00
2006,09,28,02,33,14.00
2006,09,28,02,34,14.00
2006,09,28,02,35,14.00
2006,09,28,02,36,14.00
2006,09,28,02,37,14.00
2006,09,28,02,38,14.00
2006,09,28,02,39,14.00
2006,09,28,02,40,14.00
2006,09,28,02,41,14.00
2006,09,28,02,42,14.00
2006,09,28,02,43,14.00
2006,09,28,02,44,14.00
2006,09,28,02,45,13.90
2006,09,28,02,46,13.90
2006,09,28,02,47,13.90
2006,09,28,02,48,13.90
2006,09,28,02,49,13.90
2006,09,28,02,50,13.90
2006,09,28,02,51,13.80
2006,09,28,02,52,13.80
2006,09,28,02,53,13.80
2006,09,28,02,54,13.80
2006,09,28,02,55,13.80
2006,09,28,02,56,13.80
2006,09,28,02,57,13.80
2006,09,28,02,58,13.70
2006,09,28,02,59,13.70
2006,09,28,03,00,13.70
2006,09,28,03,01,13.70
2006,09,28,03,02,13.70
2006,09,28,03,03,13.70
2006,09,28,03,04,13.70
2006,09,28,03,05,13.70
2006,09,28,03,06,13.60
2006,09,28,03,07,13.60
2006,09,28,03,08,13.60
2006,09,28,03,09,13.50
2006,09,28,03,10,13.50
2006,09,28,03,11,13.50
2006,09,28,03,12,13.50
2006,09,28,03,13,13.50
2006,09,28,03,14,13.40
2006,09,28,03,15,13.40
2006,09,28,03,16,13.40
2006,09,28,03,17,13.40
2006,09,28,03,18,13.30
2006,09,28,03,19,13.30
2006,09,28,03,20,13.30
2006,09,28,03,21,13.30
2006,09,28,03,22,13.30
2006,09,28,03,23,13.30
2006,09,28,03,24,13.30
2006,09,28,03,25,13.30
2006,09,28,03,26,13.30
2006,09,28,03,27,13.30
2006,09,28,03,28,13.20
2006,09,28,03,29,13.20
2006,09,28,03,30,13.20
2006,09,28,03,31,13.20
2006,09,28,03,32,13.10
2006,09,28,03,33,13.10
2006,09,28,03,34,13.10
2006,09,28,03,35,13.10
2006,09,28,03,36,13.10
2006,09,28,03,37,13.10
2006,09,28,03,38,13.10
2006,09,28,03,39,13.10
2006,09,28,03,40,13.10
2006,09,28,03,41,13.10
2006,09,28,03,42,13.10
2006,09,28,03,43,13.00
2006,09,28,03,44,13.00
2006,09,28,03,45,13.00
2006,09,28,03,46,13.00
2006,09,28,03,47,12.90
2006,09,28,03,48,12.90
2006,09,28,03,49,12.80
2006,09,28,03,50,12.80
2006,09,28,03,51,12.80
2006,09,28,03,52,12.80
2006,09,28,03,53,12.80
2006,09,28,03,54,12.80
2006,09,28,03,55,12.80
2006,09,28,03,56,12.80
2006,09,28,03,57,12.80
2006,09,28,03,58,12.80
2006,09,28,03,59,12.90
2006,09,28,04,00,12.90
2006,09,28,04,01,12.90
2006,09,28,04,02,12.90
2006,09,28,04,03,12.90
2006,09,28,04,04,12.90
2006,09,28,04,05,12.90
2006,09,28,04,06,13.00
2006,09,28,04,07,13.00
2006,09,28,04,08,13.00
2006,09,28,04,09,13.00
2006,09,28,04,10,12.90
2006,09,28,04,11,12.90
2006,09,28,04,12,12.90
2006,09,28,04,13,12.90
2006,09,28,04,14,12.90
2006,09,28,04,15,12.90
2006,09,28,04,16,12.90
2006,09,28,04,17,12.90
2006,09,28,04,18,12.90
2006,09,28,04,19,12.90
2006,09,28,04,20,12.90
2006,09,28,04,21,12.80
2006,09,28,04,22,12.80
2006,09,28,04,23,12.80
2006,09,28,04,24,12.80
2006,09,28,04,25,12.80
2006,09,28,04,26,12.80
2006,09,28,04,27,12.80
2006,09,28,04,28,12.80
2006,09,28,04,29,12.80
2006,09,28,04,30,12.80
2006,09,28,04,31,12.80
2006,09,28,04,32,12.80
2006,09,28,04,33,12.80
2006,09,28,04,34,12.80
2006,09,28,04,35,12.80
2006,09,28,04,36,12.80
2006,09,28,04,37,12.80
2006,09,28,04,38,12.80
2006,09,28,04,39,12.80
2006,09,28,04,40,12.80
2006,09,28,04,41,12.80
2006,09,28,04,42,12.90
2006,09,28,04,43,12.90
2006,09,28,04,44,12.90
2006,09,28,04,45,12.90
2006,09,28,04,46,12.90
2006,09,28,04,47,12.80
2006,09,28,04,48,12.80
2006,09,28,04,49,12.80
2006,09,28,04,50,12.80
2006,09,28,04,51,12.80
2006,09,28,04,52,12.80
2006,09,28,04,53,12.80
2006,09,28,04,54,12.80
2006,09,28,04,55,12.70
2006,09,28,04,56,12.70
2006,09,28,04,57,12.70
2006,09,28,04,58,12.70
2006,09,28,04,59,12.70
2006,09,28,05,00,12.70
2006,09,28,05,01,12.60
2006,09,28,05,02,12.60
2006,09,28,05,03,12.60
2006,09,28,05,04,12.60
2006,09,28,05,05,12.60
2006,09,28,05,06,12.60
2006,09,28,05,07,12.70
2006,09,28,05,08,12.80
2006,09,28,05,09,12.80
2006,09,28,05,10,12.80
2006,09,28,05,11,12.80
2006,09,28,05,12,12.80
2006,09,28,05,13,12.80
2006,09,28,05,14,12.80
2006,09,28,05,15,12.80
2006,09,28,05,16,12.80
2006,09,28,05,17,12.80
2006,09,28,05,18,12.80
2006,09,28,05,19,12.80
2006,09,28,05,20,12.80
2006,09,28,05,21,12.80
2006,09,28,05,22,12.80
2006,09,28,05,23,12.70
2006,09,28,05,24,12.70
2006,09,28,05,25,12.70
2006,09,28,05,26,12.70
2006,09,28,05,27,12.60
2006,09,28,05,28,12.60
2006,09,28,05,29,12.60
2006,09,28,05,30,12.60
2006,09,28,05,31,12.60
2006,09,28,05,32,12.60
2006,09,28,05,33,12.60
2006,09,28,05,34,12.60
2006,09,28,05,35,12.60
2006,09,28,05,36,12.60
2006,09,28,05,37,12.60
2006,09,28,05,38,12.60
2006,09,28,05,39,12.60
2006,09,28,05,40,12.60
2006,09,28,05,41,12.60
2006,09,28,05,42,12.50
2006,09,28,05,43,12.50
2006,09,28,05,44,12.50
2006,09,28,05,45,12.50
2006,09,28,05,46,12.50
2006,09,28,05,47,12.50
2006,09,28,05,48,12.50
2006,09,28,05,49,12.50
2006,09,28,05,50,12.50
2006,09,28,05,51,12.50
2006,09,28,05,52,12.50
2006,09,28,05,53,12.50
2006,09,28,05,54,12.40
2006,09,28,05,55,12.40
2006,09,28,05,56,12.40
2006,09,28,05,57,12.40
2006,09,28,05,58,12.30
2006,09,28,05,59,12.30
2006,09,28,06,00,12.30
2006,09,28,06,01,12.30
2006,09,28,06,02,12.30
2006,09,28,06,03,12.30
2006,09,28,06,04,12.30
2006,09,28,06,05,12.30
2006,09,28,06,06,12.30
2006,09,28,06,07,12.30
2006,09,28,06,08,12.30
2006,09,28,06,09,12.30
2006,09,28,06,10,12.30
2006,09,28,06,11,12.30
2006,09,28,06,12,12.30
2006,09,28,06,13,12.20
2006,09,28,06,14,12.20
2006,09,28,06,15,12.20
2006,09,28,06,16,12.20
2006,09,28,06,17,12.20
2006,09,28,06,18,12.20
2006,09,28,06,19,12.20
2006,09,28,06,20,12.20
2006,09,28,06,21,12.10
2006,09,28,06,22,12.10
2006,09,28,06,23,12.00
2006,09,28,06,24,12.00
2006,09,28,06,25,12.00
2006,09,28,06,26,11.90
2006,09,28,06,27,11.90
2006,09,28,06,28,11.90
2006,09,28,06,29,11.80
2006,09,28,06,30,11.80
2006,09,28,06,31,11.80
2006,09,28,06,32,11.80
2006,09,28,06,33,11.90
2006,09,28,06,34,11.90
2006,09,28,06,35,11.90
2006,09,28,06,36,11.90
2006,09,28,06,37,12.00
2006,09,28,06,38,12.00
2006,09,28,06,39,12.10
2006,09,28,06,40,12.10
2006,09,28,06,41,12.10
2006,09,28,06,42,12.10
2006,09,28,06,43,12.10
2006,09,28,06,44,12.10
2006,09,28,06,45,12.10
2006,09,28,06,46,12.10
2006,09,28,06,47,12.00
2006,09,28,06,48,12.00
2006,09,28,06,49,12.00
2006,09,28,06,50,12.00
2006,09,28,06,51,11.90
2006,09,28,06,52,11.90
2006,09,28,06,53,11.80
2006,09,28,06,54,11.80
2006,09,28,06,55,11.80
2006,09,28,06,56,11.80
2006,09,28,06,57,11.80
2006,09,28,06,58,11.80
2006,09,28,06,59,11.70
2006,09,28,07,00,11.70
2006,09,28,07,01,11.60
2006,09,28,07,02,11.60
2006,09,28,07,03,11.60
2006,09,28,07,04,11.60
2006,09,28,07,05,11.60
2006,09,28,07,06,11.60
2006,09,28,07,07,11.60
2006,09,28,07,08,11.60
2006,09,28,07,09,11.60
2006,09,28,07,10,11.60
2006,09,28,07,11,11.60
2006,09,28,07,12,11.60
2006,09,28,07,13,11.60
2006,09,28,07,14,11.60
2006,09,28,07,15,11.60
2006,09,28,07,16,11.60
2006,09,28,07,17,11.60
2006,09,28,07,18,11.60
2006,09,28,07,19,11.60
2006,09,28,07,20,11.60
2006,09,28,07,21,11.60
2006,09,28,07,22,11.60
2006,09,28,07,23,11.60
2006,09,28,07,24,11.60
2006,09,28,07,25,11.60
2006,09,28,07,26,11.60
2006,09,28,07,27,11.70
2006,09,28,07,28,11.70
2006,09,28,07,29,11.80
2006,09,28,07,30,11.80
2006,09,28,07,31,11.90
2006,09,28,07,32,11.90
2006,09,28,07,33,11.90
2006,09,28,07,34,12.00
2006,09,28,07,35,12.00
2006,09,28,07,36,12.10
2006,09,28,07,37,12.10
2006,09,28,07,38,12.20
2006,09,28,07,39,12.20
2006,09,28,07,40,12.20
2006,09,28,07,41,12.30
2006,09,28,07,42,12.30
2006,09,28,07,43,12.30
2006,09,28,07,44,12.30
2006,09,28,07,45,12.30
2006,09,28,07,46,12.40
2006,09,28,07,47,12.40
2006,09,28,07,48,12.40
2006,09,28,07,49,12.40
2006,09,28,07,50,12.40
2006,09,28,07,51,12.50
2006,09,28,07,52,12.50
2006,09,28,07,53,12.60
2006,09,28,07,54,12.60
2006,09,28,07,55,12.70
2006,09,28,07,56,12.70
2006,09,28,07,57,12.80
2006,09,28,07,58,12.80
2006,09,28,07,59,12.80
2006,09,28,08,00,12.80
2006,09,28,08,01,12.90
2006,09,28,08,02,12.90
2006,09,28,08,03,13.00
2006,09,28,08,04,13.10
2006,09,28,08,05,13.10
2006,09,28,08,06,13.20
2006,09,28,08,07,13.20
2006,09,28,08,08,13.30
2006,09,28,08,09,13.30
2006,09,28,08,10,13.40
2006,09,28,08,11,13.60
2006,09,28,08,12,13.70
2006,09,28,08,13,13.80
2006,09,28,08,14,13.90
2006,09,28,08,15,14.10
2006,09,28,08,16,14.20
2006,09,28,08,17,14.40
2006,09,28,08,18,14.50
2006,09,28,08,19,14.60
2006,09,28,08,20,14.80
2006,09,28,08,21,14.90
2006,09,28,08,22,15.00
2006,09,28,08,23,15.10
2006,09,28,08,24,15.20
2006,09,28,08,25,15.30
2006,09,28,08,26,15.30
2006,09,28,08,27,15.40
2006,09,28,08,28,15.50
2006,09,28,08,29,15.60
2006,09,28,08,30,15.70
2006,09,28,08,31,15.80
2006,09,28,08,32,15.90
2006,09,28,08,33,16.00
2006,09,28,08,34,16.10
2006,09,28,08,35,16.10
2006,09,28,08,36,16.20
2006,09,28,08,37,16.30
2006,09,28,08,38,16.30
2006,09,28,08,39,16.40
2006,09,28,08,40,16.40
2006,09,28,08,41,16.40
2006,09,28,08,42,16.40
2006,09,28,08,43,16.40
2006,09,28,08,44,16.40
2006,09,28,08,45,16.40
2006,09,28,08,46,16.40
2006,09,28,08,47,16.40
2006,09,28,08,48,16.40
2006,09,28,08,49,16.30
2006,09,28,08,50,16.30
2006,09,28,08,51,16.40
2006,09,28,08,52,16.40
2006,09,28,08,53,16.40
2006,09,28,08,54,16.40
2006,09,28,08,55,16.40
2006,09,28,08,56,16.40
2006,09,28,08,57,16.40
2006,09,28,08,58,16.40
2006,09,28,08,59,16.60
2006,09,28,09,00,16.60
2006,09,28,09,01,16.70
2006,09,28,09,02,16.70
2006,09,28,09,03,16.80
2006,09,28,09,04,16.80
2006,09,28,09,05,16.90
2006,09,28,09,06,16.90
2006,09,28,09,07,17.00
2006,09,28,09,08,17.10
2006,09,28,09,09,17.30
2006,09,28,09,10,17.30
2006,09,28,09,11,17.30
2006,09,28,09,12,17.30
2006,09,28,09,13,17.30
2006,09,28,09,14,17.40
2006,09,28,09,15,17.50
2006,09,28,09,16,17.50
2006,09,28,09,17,17.60
2006,09,28,09,18,17.70
2006,09,28,09,19,17.80
2006,09,28,09,20,17.80
2006,09,28,09,21,17.90
2006,09,28,09,22,17.90
2006,09,28,09,23,18.00
2006,09,28,09,24,18.20
2006,09,28,09,25,18.30
2006,09,28,09,26,18.50
2006,09,28,09,27,18.60
2006,09,28,09,28,18.60
2006,09,28,09,29,18.60
2006,09,28,09,30,18.60
2006,09,28,09,31,18.70
2006,09,28,09,32,18.70
2006,09,28,09,33,18.60
2006,09,28,09,34,18.60
2006,09,28,09,35,18.60
2006,09,28,09,36,18.60
2006,09,28,09,37,18.50
2006,09,28,09,38,18.30
2006,09,28,09,39,18.10
2006,09,28,09,40,18.00
2006,09,28,09,41,17.80
2006,09,28,09,42,17.60
2006,09,28,09,43,17.50
2006,09,28,09,44,17.40
2006,09,28,09,45,17.30
2006,09,28,09,46,17.30
2006,09,28,09,47,17.30
2006,09,28,09,48,17.30
2006,09,28,09,49,17.30
2006,09,28,09,50,17.30
2006,09,28,09,51,17.20
2006,09,28,09,52,17.20
2006,09,28,09,53,17.10
2006,09,28,09,54,17.00
2006,09,28,09,55,17.00
2006,09,28,09,56,17.00
2006,09,28,09,57,17.00
2006,09,28,09,58,17.00
2006,09,28,09,59,17.00
2006,09,28,10,00,17.10
2006,09,28,10,01,17.00
2006,09,28,10,02,17.00
2006,09,28,10,03,16.90
2006,09,28,10,04,16.80
2006,09,28,10,05,16.80
2006,09,28,10,06,16.90
2006,09,28,10,07,16.90
2006,09,28,10,08,16.90
2006,09,28,10,09,16.90
2006,09,28,10,10,16.90
2006,09,28,10,11,16.90
2006,09,28,10,12,17.00
2006,09,28,10,13,17.00
2006,09,28,10,14,17.10
2006,09,28,10,15,17.10
2006,09,28,10,16,17.20
2006,09,28,10,17,17.20
2006,09,28,10,18,17.30
2006,09,28,10,19,17.40
2006,09,28,10,20,17.50
2006,09,28,10,21,17.50
2006,09,28,10,22,17.70
2006,09,28,10,23,17.90
2006,09,28,10,24,18.00
2006,09,28,10,25,18.20
2006,09,28,10,26,18.40
2006,09,28,10,27,18.50
2006,09,28,10,28,18.60
2006,09,28,10,29,18.70
2006,09,28,10,30,18.70
2006,09,28,10,31,18.70
2006,09,28,10,32,18.70
2006,09,28,10,33,18.60
2006,09,28,10,34,18.60
2006,09,28,10,35,18.60
2006,09,28,10,36,18.60
2006,09,28,10,37,18.70
2006,09,28,10,38,18.70
2006,09,28,10,39,18.80
2006,09,28,10,40,18.80
2006,09,28,10,41,18.80
2006,09,28,10,42,18.90
2006,09,28,10,43,19.00
2006,09,28,10,44,19.10
2006,09,28,10,45,19.20
2006,09,28,10,46,19.30
2006,09,28,10,47,19.30
2006,09,28,10,48,19.30
2006,09,28,10,49,19.40
2006,09,28,10,50,19.40
2006,09,28,10,51,19.40
2006,09,28,10,52,19.40
2006,09,28,10,53,19.30
2006,09,28,10,54,19.30
2006,09,28,10,55,19.30
2006,09,28,10,56,19.40
2006,09,28,10,57,19.40
2006,09,28,10,58,19.30
2006,09,28,10,59,19.20
2006,09,28,11,00,19.20
2006,09,28,11,01,19.20
2006,09,28,11,02,19.40
2006,09,28,11,03,19.50
2006,09,28,11,04,19.60
2006,09,28,11,05,19.50
2006,09,28,11,06,19.40
2006,09,28,11,07,19.40
2006,09,28,11,08,19.40
2006,09,28,11,09,19.40
2006,09,28,11,10,19.40
2006,09,28,11,11,19.40
2006,09,28,11,12,19.50
2006,09,28,11,13,19.50
2006,09,28,11,14,19.50
2006,09,28,11,15,19.60
2006,09,28,11,16,19.70
2006,09,28,11,17,19.70
2006,09,28,11,18,19.70
2006,09,28,11,19,19.70
2006,09,28,11,20,19.70
2006,09,28,11,21,19.70
2006,09,28,11,22,19.70
2006,09,28,11,23,19.70
2006,09,28,11,24,19.70
2006,09,28,11,25,19.60
2006,09,28,11,26,19.60
2006,09,28,11,27,19.60
2006,09,28,11,28,19.60
2006,09,28,11,29,19.60
2006,09,28,11,30,19.60
2006,09,28,11,31,19.70
2006,09,28,11,32,19.80
2006,09,28,11,33,19.80
2006,09,28,11,34,19.90
2006,09,28,11,35,19.80
2006,09,28,11,36,19.80
2006,09,28,11,37,19.90
2006,09,28,11,38,19.80
2006,09,28,11,39,19.80
2006,09,28,11,40,19.80
2006,09,28,11,41,19.80
2006,09,28,11,42,19.80
2006,09,28,11,43,19.80
2006,09,28,11,44,19.90
2006,09,28,11,45,19.90
2006,09,28,11,46,19.90
2006,09,28,11,47,19.90
2006,09,28,11,48,19.80
2006,09,28,11,49,19.70
2006,09,28,11,50,19.50
2006,09,28,11,51,19.50
2006,09,28,11,52,19.50
2006,09,28,11,53,19.50
2006,09,28,11,54,19.60
2006,09,28,11,55,19.70
2006,09,28,11,56,19.60
2006,09,28,11,57,19.60
2006,09,28,11,58,19.60
2006,09,28,11,59,19.60
2006,09,28,12,00,19.50
2006,09,28,12,01,19.40
2006,09,28,12,02,19.40
2006,09,28,12,03,19.40
2006,09,28,12,04,19.30
2006,09,28,12,05,19.30
2006,09,28,12,06,19.20
2006,09,28,12,07,19.20
2006,09,28,12,08,19.30
2006,09,28,12,09,19.40
2006,09,28,12,10,19.40
2006,09,28,12,11,19.40
2006,09,28,12,12,19.40
2006,09,28,12,13,19.50
2006,09,28,12,14,19.50
2006,09,28,12,15,19.40
2006,09,28,12,16,19.30
2006,09,28,12,17,19.30
2006,09,28,12,18,19.20
2006,09,28,12,19,19.20
2006,09,28,12,20,19.20
2006,09,28,12,21,19.10
2006,09,28,12,22,19.00
2006,09,28,12,23,18.90
2006,09,28,12,24,19.00
2006,09,28,12,25,19.10
2006,09,28,12,26,19.10
2006,09,28,12,27,19.10
2006,09,28,12,28,19.10
2006,09,28,12,29,19.10
2006,09,28,12,30,19.20
2006,09,28,12,31,19.30
2006,09,28,12,32,19.40
2006,09,28,12,33,19.40
2006,09,28,12,34,19.50
2006,09,28,12,35,19.60
2006,09,28,12,36,19.60
2006,09,28,12,37,19.70
2006,09,28,12,38,19.80
2006,09,28,12,39,19.90
2006,09,28,12,40,19.90
2006,09,28,12,41,20.10
2006,09,28,12,42,20.20
2006,09,28,12,43,20.20
2006,09,28,12,44,20.20
2006,09,28,12,45,20.20
2006,09,28,12,46,20.20
2006,09,28,12,47,20.20
2006,09,28,12,48,20.20
2006,09,28,12,49,20.20
2006,09,28,12,50,20.20
2006,09,28,12,51,20.30
2006,09,28,12,52,20.30
2006,09,28,12,53,20.50
2006,09,28,12,54,20.50
2006,09,28,12,55,20.60
2006,09,28,12,56,20.60
2006,09,28,12,57,20.70
2006,09,28,12,58,20.80
2006,09,28,12,59,20.90
2006,09,28,13,00,21.00
2006,09,28,13,01,21.10
2006,09,28,13,02,21.30
2006,09,28,13,03,21.30
2006,09,28,13,04,21.40
2006,09,28,13,05,21.50
2006,09,28,13,06,21.60
2006,09,28,13,07,21.70
2006,09,28,13,08,21.70
2006,09,28,13,09,21.70
2006,09,28,13,10,21.60
2006,09,28,13,11,21.50
2006,09,28,13,12,21.60
2006,09,28,13,13,21.60
2006,09,28,13,14,21.60
2006,09,28,13,15,21.60
2006,09,28,13,16,21.60
2006,09,28,13,17,21.60
2006,09,28,13,18,21.60
2006,09,28,13,19,21.70
2006,09,28,13,20,21.80
2006,09,28,13,21,21.80
2006,09,28,13,22,21.90
2006,09,28,13,23,22.00
2006,09,28,13,24,22.00
2006,09,28,13,25,22.10
2006,09,28,13,26,22.00
2006,09,28,13,27,22.00
2006,09,28,13,28,21.90
2006,09,28,13,29,21.80
2006,09,28,13,30,21.70
2006,09,28,13,31,21.60
2006,09,28,13,32,21.60
2006,09,28,13,33,21.60
2006,09,28,13,34,21.70
2006,09,28,13,35,21.80
2006,09,28,13,36,21.90
2006,09,28,13,37,21.90
2006,09,28,13,38,21.90
2006,09,28,13,39,21.80
2006,09,28,13,40,21.70
2006,09,28,13,41,21.50
2006,09,28,13,42,21.30
2006,09,28,13,43,21.10
2006,09,28,13,44,21.00
2006,09,28,13,45,20.90
2006,09,28,13,46,20.60
2006,09,28,13,47,20.40
2006,09,28,13,48,20.10
2006,09,28,13,49,19.90
2006,09,28,13,50,19.80
2006,09,28,13,51,19.60
2006,09,28,13,52,19.40
2006,09,28,13,53,19.40
2006,09,28,13,54,19.50
2006,09,28,13,55,19.30
2006,09,28,13,56,19.20
2006,09,28,13,57,19.10
2006,09,28,13,58,19.10
2006,09,28,13,59,19.10
2006,09,28,14,00,19.00
2006,09,28,14,01,18.90
2006,09,28,14,02,18.90
2006,09,28,14,03,19.00
2006,09,28,14,04,19.10
2006,09,28,14,05,19.10
2006,09,28,14,06,19.10
2006,09,28,14,07,19.10
2006,09,28,14,08,19.10
2006,09,28,14,09,19.00
2006,09,28,14,10,18.90
2006,09,28,14,11,18.70
2006,09,28,14,12,18.70
2006,09,28,14,13,18.70
2006,09,28,14,14,18.60
2006,09,28,14,15,18.60
2006,09,28,14,16,18.60
2006,09,28,14,17,18.50
2006,09,28,14,18,18.40
2006,09,28,14,19,18.40
2006,09,28,14,20,18.40
2006,09,28,14,21,18.20
2006,09,28,14,22,18.20
2006,09,28,14,23,18.20
2006,09,28,14,24,18.10
2006,09,28,14,25,18.00
2006,09,28,14,26,17.90
2006,09,28,14,27,18.00
2006,09,28,14,28,18.20
2006,09,28,14,29,18.20
2006,09,28,14,30,18.30
2006,09,28,14,31,18.40
2006,09,28,14,32,18.50
2006,09,28,14,33,18.30
2006,09,28,14,34,18.20
2006,09,28,14,35,18.20
2006,09,28,14,36,18.20
2006,09,28,14,37,18.20
2006,09,28,14,38,18.20
2006,09,28,14,39,18.20
2006,09,28,14,40,18.30
2006,09,28,14,41,18.30
2006,09,28,14,42,18.20
2006,09,28,14,43,18.20
2006,09,28,14,44,18.10
2006,09,28,14,45,18.10
2006,09,28,14,46,18.10
2006,09,28,14,47,18.20
2006,09,28,14,48,18.30
2006,09,28,14,49,18.20
2006,09,28,14,50,18.20
2006,09,28,14,51,18.30
2006,09,28,14,52,18.40
2006,09,28,14,53,18.40
2006,09,28,14,54,18.50
2006,09,28,14,55,18.50
2006,09,28,14,56,18.50
2006,09,28,14,57,18.40
2006,09,28,14,58,18.30
2006,09,28,14,59,18.30
2006,09,28,15,00,18.20
2006,09,28,15,01,18.20
2006,09,28,15,02,18.20
2006,09,28,15,03,18.20
2006,09,28,15,04,18.30
2006,09,28,15,05,18.40
2006,09,28,15,06,18.40
2006,09,28,15,07,18.40
2006,09,28,15,08,18.40
2006,09,28,15,09,18.50
2006,09,28,15,10,18.50
2006,09,28,15,11,18.60
2006,09,28,15,12,18.60
2006,09,28,15,13,18.60
2006,09,28,15,14,18.50
2006,09,28,15,15,18.60
2006,09,28,15,16,18.60
2006,09,28,15,17,18.60
2006,09,28,15,18,18.60
2006,09,28,15,19,18.70
2006,09,28,15,20,18.70
2006,09,28,15,21,18.80
2006,09,28,15,22,18.90
2006,09,28,15,23,19.10
2006,09,28,15,24,19.20
2006,09,28,15,25,19.40
2006,09,28,15,26,19.60
2006,09,28,15,27,19.70
2006,09,28,15,28,19.90
2006,09,28,15,29,19.90
2006,09,28,15,30,19.90
2006,09,28,15,31,20.00
2006,09,28,15,32,19.90
2006,09,28,15,33,19.90
2006,09,28,15,34,19.90
2006,09,28,15,35,19.90
2006,09,28,15,36,19.90
2006,09,28,15,37,19.80
2006,09,28,15,38,19.70
2006,09,28,15,39,19.70
2006,09,28,15,40,19.80
2006,09,28,15,41,19.80
2006,09,28,15,42,19.90
2006,09,28,15,43,19.90
2006,09,28,15,44,20.00
2006,09,28,15,45,20.20
2006,09,28,15,46,20.20
2006,09,28,15,47,20.20
2006,09,28,15,48,20.20
2006,09,28,15,49,20.30
2006,09,28,15,50,20.30
2006,09,28,15,51,20.40
2006,09,28,15,52,20.40
2006,09,28,15,53,20.50
2006,09,28,15,54,20.50
2006,09,28,15,55,20.40
2006,09,28,15,56,20.30
2006,09,28,15,57,20.20
2006,09,28,15,58,20.20
2006,09,28,15,59,20.20
2006,09,28,16,00,20.20
2006,09,28,16,01,20.20
2006,09,28,16,02,20.20
2006,09,28,16,03,20.30
2006,09,28,16,04,20.30
2006,09,28,16,05,20.40
2006,09,28,16,06,20.40
2006,09,28,16,07,20.20
2006,09,28,16,08,20.20
2006,09,28,16,09,20.10
2006,09,28,16,10,20.10
2006,09,28,16,11,20.10
2006,09,28,16,12,20.10
2006,09,28,16,13,20.20
2006,09,28,16,14,20.30
2006,09,28,16,15,20.30
2006,09,28,16,16,20.30
2006,09,28,16,17,20.20
2006,09,28,16,18,20.00
2006,09,28,16,19,19.90
2006,09,28,16,20,20.00
2006,09,28,16,21,20.10
2006,09,28,16,22,20.20
2006,09,28,16,23,20.20
2006,09,28,16,24,20.10
2006,09,28,16,25,20.00
2006,09,28,16,26,19.90
2006,09,28,16,27,19.90
2006,09,28,16,28,19.90
2006,09,28,16,29,20.10
2006,09,28,16,30,20.10
2006,09,28,16,31,20.20
2006,09,28,16,32,20.10
2006,09,28,16,33,20.10
2006,09,28,16,34,20.10
2006,09,28,16,35,20.10
2006,09,28,16,36,20.10
2006,09,28,16,37,20.20
2006,09,28,16,38,20.30
2006,09,28,16,39,20.40
2006,09,28,16,40,20.40
2006,09,28,16,41,20.50
2006,09,28,16,42,20.50
2006,09,28,16,43,20.50
2006,09,28,16,44,20.50
2006,09,28,16,45,20.60
2006,09,28,16,46,20.50
2006,09,28,16,47,20.60
2006,09,28,16,48,20.60
2006,09,28,16,49,20.70
2006,09,28,16,50,20.70
2006,09,28,16,51,20.60
2006,09,28,16,52,20.50
2006,09,28,16,53,20.50
2006,09,28,16,54,20.40
2006,09,28,16,55,20.30
2006,09,28,16,56,20.40
2006,09,28,16,57,20.40
2006,09,28,16,58,20.40
2006,09,28,16,59,20.40
2006,09,28,17,00,20.40
2006,09,28,17,01,20.40
2006,09,28,17,02,20.40
2006,09,28,17,03,20.40
2006,09,28,17,04,20.40
2006,09,28,17,05,20.40
2006,09,28,17,06,20.40
2006,09,28,17,07,20.40
2006,09,28,17,08,20.40
2006,09,28,17,09,20.40
2006,09,28,17,10,20.40
2006,09,28,17,11,20.40
2006,09,28,17,12,20.40
2006,09,28,17,13,20.40
2006,09,28,17,14,20.40
2006,09,28,17,15,20.30
2006,09,28,17,16,20.30
2006,09,28,17,17,20.30
2006,09,28,17,18,20.30
2006,09,28,17,19,20.20